Nantucket, MA

9:09 PM EDT on October 20, 2017 (GMT -0400)
Nantucket Memorial

Weather History for KACK - July, 2014

Change the Weather History Date:

Tuesday, July 1, 2014

  Actual Average Record
Temperature  
Mean Temperature 68 °F -  
Max Temperature 73 °F 74 °F 92 °F (1964)
Min Temperature 64 °F 60 °F 54 °F (1952)
Cooling Degree Days 4    
Growing Degree Days 18 (Base 50)    
Moisture  
Dew Point 65 °F    
Average Humidity 89    
Maximum Humidity 97    
Minimum Humidity 76    
Precipitation  
Precipitation 0.01 in - - ()
Sea Level Pressure  
Sea Level Pressure 29.94 in    
Wind  
Wind Speed 10 mph (SSW)    
Max Wind Speed 15 mph    
Max Gust Speed 21 mph    
Visibility 10 miles    
Events      
Averages and records for this station are not official NWS values.
T = Trace of Precipitation, MM = Missing Value Source: NWS Daily Summary

Daily Weather History Graph

Daily Weather History Graph

Search for Another Location

Airport or City:

Trip Planner

Search our weather history database for the weather conditions in past years. The results will help you decide how hot, cold, wet, or windy it might be!

Date:

Astronomy

Jul. 01, 2014 Rise Set
Actual Time 5:11 AM EDT 8:17 PM EDT
Civil Twilight 4:37 AM EDT 8:50 PM EDT
Nautical Twilight 3:54 AM EDT 9:33 PM EDT
Astronomical Twilight 3:03 AM EDT 10:24 PM EDT
Moon 9:18 AM EDT (7/1) 10:36 PM EDT (7/1)
Length of Visible Light 16h 13m
Length of Day
15h 06m
Waxing Crescent, 16% of the Moon is Illuminated
Jul 1
Waxing Crescent
Jul 5
First Quarter
Jul 12
Full
Jul 18
Last Quarter
Jul 26
New

Hourly Weather History & Observations

Time (EDT) Temp. Dew Point Humidity Pressure Visibility Wind Dir Wind Speed Gust Speed Precip Events Conditions
12:53 AM 64.9 °F 63.0 °F 93% 29.99 in 10.0 mi SSW 8.1 mph - N/A   Clear
1:53 AM 64.9 °F 63.0 °F 93% 29.98 in 10.0 mi SW 6.9 mph - N/A   Clear
2:53 AM 64.9 °F 64.0 °F 97% 29.98 in 10.0 mi SW 8.1 mph - N/A   Clear
3:53 AM 64.9 °F 64.0 °F 97% 29.96 in 10.0 mi SW 6.9 mph - N/A   Clear
4:53 AM 64.9 °F 64.0 °F 97% 29.97 in 10.0 mi SSW 8.1 mph - N/A   Mostly Cloudy
5:53 AM 66.9 °F 64.9 °F 93% 29.96 in 10.0 mi SSW 10.4 mph - 0.01 in   Mostly Cloudy
6:53 AM 68.0 °F 66.0 °F 93% 29.96 in 10.0 mi SSW 11.5 mph - N/A   Overcast
7:53 AM 68.0 °F 66.0 °F 93% 29.96 in 10.0 mi SSW 10.4 mph - N/A   Overcast
8:53 AM 71.1 °F 66.9 °F 87% 29.98 in 10.0 mi SW 11.5 mph - N/A   Scattered Clouds
9:53 AM 72.0 °F 66.9 °F 84% 29.96 in 8.0 mi SSW 12.7 mph - N/A   Clear
10:53 AM 73.0 °F 68.0 °F 84% 29.96 in 10.0 mi SW 15.0 mph - N/A   Clear
11:53 AM 73.0 °F 66.0 °F 79% 29.96 in 10.0 mi SW 11.5 mph - N/A   Clear
12:53 PM 73.0 °F 66.0 °F 79% 29.94 in 10.0 mi SW 11.5 mph 20.7 mph N/A   Clear
1:53 PM 73.0 °F 64.9 °F 76% 29.92 in 10.0 mi SSW 15.0 mph 20.7 mph N/A   Clear
2:53 PM 72.0 °F 64.9 °F 78% 29.92 in 10.0 mi SSW 13.8 mph - N/A   Clear
3:53 PM 72.0 °F 66.0 °F 81% 29.93 in 10.0 mi SW 13.8 mph - N/A   Clear
4:53 PM 71.1 °F 66.0 °F 84% 29.92 in 10.0 mi SSW 9.2 mph - N/A   Clear
5:53 PM 70.0 °F 66.0 °F 87% 29.91 in 7.0 mi SSW 9.2 mph - N/A   Clear
6:53 PM 69.1 °F 66.0 °F 90% 29.92 in 10.0 mi SSW 10.4 mph - N/A   Clear
7:53 PM 68.0 °F 64.9 °F 90% 29.91 in 10.0 mi SSW 12.7 mph - N/A   Clear
8:53 PM 66.9 °F 64.9 °F 93% 29.92 in 10.0 mi SSW 12.7 mph - N/A   Clear
9:53 PM 66.0 °F 64.0 °F 93% 29.92 in 10.0 mi SSW 10.4 mph - N/A   Clear
10:53 PM 66.9 °F 64.9 °F 93% 29.93 in 8.0 mi SSW 10.4 mph - N/A   Clear
11:53 PM 66.9 °F 64.9 °F 93% 29.91 in 7.0 mi South 11.5 mph - N/A   Partly Cloudy